When you browse on this site, cookies collect data to enhance your experience and personalize the content and advertising you see.
Visit our Privacy Policy to learn more. By continuing to use the site, you agree to this use of cookies and data.
  • In Latvia
  • List of Countries
  • For 7 days
  • Water Temperature
  • Satellite Maps
  • Weather Map
  • Weather Widgets
  • user-avatar
    Login

    Hourly Weather Kalat

    Today, 18 April, Thursday

    Time Temperature Precipitation Wind Pressure Humidity
    00:00 -4°C° 0 mm 1 mps 471 mmHg 77%
    01:00 -6°C° 0 mm 1 mps 471 mmHg 77%
    02:00 -6°C° 0 mm 1 mps 471 mmHg 77%
    03:00 -6°C° 0 mm 1 mps 470 mmHg 76%
    04:00 -7°C° 0 mm 1 mps 470 mmHg 75%
    05:00 -8°C° 0 mm 1 mps 469 mmHg 76%
    06:00 -6°C° 0 mm 1 mps 471 mmHg 73%
    07:00 -4°C° 0 mm 0 mps 472 mmHg 70%
    08:00 -3°C° 0 mm 0 mps 474 mmHg 67%
    09:00 -1°C° 0 mm 1 mps 475 mmHg 67%
    10:00 0°C° 0 mm 1 mps 476 mmHg 66%
    11:00 +1°C° 0 mm 2 mps 476 mmHg 66%
    12:00 +1°C° 0 mm 2 mps 476 mmHg 64%
    13:00 +1°C° 0 mm 2 mps 477 mmHg 63%
    14:00 +1°C° 0 mm 3 mps 477 mmHg 61%
    15:00 +1°C° 0 mm 3 mps 477 mmHg 61%
    16:00 0°C° 0 mm 3 mps 476 mmHg 62%
    17:00 0°C° 0 mm 3 mps 476 mmHg 62%
    18:00 -2°C° 0 mm 3 mps 475 mmHg 65%
    19:00 -3°C° 0 mm 2 mps 474 mmHg 68%
    20:00 -5°C° 0 mm 2 mps 473 mmHg 71%
    21:00 -4°C° 0 mm 1 mps 473 mmHg 71%
    22:00 -4°C° 0 mm 1 mps 473 mmHg 70%
    23:00 -6°C° 0 mm 1 mps 473 mmHg 70%

    Tomorrow, 19 April, Friday

    Time Temperature Precipitation Wind Pressure Humidity
    00:00 -6°C° 0 mm 1 mps 472 mmHg 62%
    01:00 -6°C° 0 mm 1 mps 472 mmHg 54%
    02:00 -6°C° 0 mm 1 mps 472 mmHg 46%
    03:00 -6°C° 0 mm 1 mps 472 mmHg 41%
    04:00 -6°C° 0 mm 1 mps 472 mmHg 35%
    05:00 -6°C° 0 mm 1 mps 471 mmHg 30%
    06:00 -4°C° 0 mm 1 mps 473 mmHg 32%
    07:00 -2°C° 0 mm 1 mps 474 mmHg 34%
    08:00 0°C° 0 mm 1 mps 475 mmHg 36%
    09:00 +1°C° 0 mm 1 mps 476 mmHg 35%
    10:00 +3°C° 0 mm 1 mps 476 mmHg 35%
    11:00 +3°C° 0 mm 2 mps 477 mmHg 34%
    12:00 +4°C° 0 mm 2 mps 477 mmHg 36%
    13:00 +4°C° 0 mm 2 mps 478 mmHg 39%
    14:00 +5°C° 0 mm 2 mps 478 mmHg 41%
    15:00 +4°C° 0 mm 2 mps 477 mmHg 42%
    16:00 +4°C° 0 mm 2 mps 477 mmHg 43%
    17:00 +3°C° 0 mm 2 mps 477 mmHg 45%
    18:00 +2°C° 0 mm 2 mps 476 mmHg 46%
    19:00 -1°C° 0 mm 2 mps 475 mmHg 46%
    20:00 0°C° 0 mm 1 mps 474 mmHg 47%
    21:00 -1°C° 0 mm 1 mps 474 mmHg 51%
    22:00 -1°C° 0 mm 1 mps 475 mmHg 55%
    23:00 -1°C° 0 mm 1 mps 475 mmHg 58%

    Day after tomorrow, 20 April, Saturday

    Time Temperature Precipitation Wind Pressure Humidity
    00:00 -1°C° 0.1 mm 1 mps 474 mmHg 62%
    01:00 -1°C° 0.1 mm 1 mps 474 mmHg 66%
    02:00 -1°C° 0.1 mm 1 mps 473 mmHg 71%
    03:00 -2°C° 0 mm 1 mps 473 mmHg 70%
    04:00 -2°C° 0 mm 1 mps 473 mmHg 70%
    05:00 -2°C° 0 mm 1 mps 472 mmHg 70%
    06:00 -1°C° 0 mm 1 mps 473 mmHg 68%
    07:00 0°C° 0 mm 1 mps 474 mmHg 66%
    08:00 0°C° 0 mm 1 mps 474 mmHg 63%
    09:00 +1°C° 0 mm 1 mps 475 mmHg 59%
    10:00 +3°C° 0 mm 1 mps 475 mmHg 54%
    11:00 +4°C° 0 mm 1 mps 476 mmHg 50%
    12:00 +4°C° 0 mm 1 mps 476 mmHg 47%
    13:00 +5°C° 0 mm 1 mps 476 mmHg 45%
    14:00 +4°C° 0 mm 0 mps 476 mmHg 42%
    15:00 +4°C° 0 mm 0 mps 476 mmHg 43%
    16:00 +5°C° 0 mm 1 mps 476 mmHg 44%
    17:00 +5°C° 0 mm 1 mps 476 mmHg 45%
    18:00 +4°C° 0 mm 1 mps 475 mmHg 46%
    19:00 +2°C° 0 mm 1 mps 475 mmHg 48%
    20:00 +1°C° 0 mm 1 mps 474 mmHg 49%
    21:00 0°C° 0 mm 0 mps 474 mmHg 49%
    22:00 0°C° 0 mm 0 mps 474 mmHg 50%
    23:00 -1°C° 0 mm 0 mps 474 mmHg 51%

    21 April, Sunday

    Time Temperature Precipitation Wind Pressure Humidity
    00:00 -1°C° 0 mm 0 mps 474 mmHg 51%
    01:00 0°C° 0 mm 1 mps 474 mmHg 51%
    02:00 0°C° 0 mm 1 mps 473 mmHg 52%
    03:00 -1°C° 0 mm 1 mps 473 mmHg 52%
    04:00 -1°C° 0 mm 1 mps 473 mmHg 51%
    05:00 -2°C° 0 mm 1 mps 472 mmHg 51%
    06:00 -1°C° 0 mm 1 mps 473 mmHg 53%
    07:00 0°C° 0 mm 1 mps 473 mmHg 55%
    08:00 0°C° 0 mm 1 mps 474 mmHg 56%
    09:00 +2°C° 0 mm 1 mps 475 mmHg 53%
    10:00 +3°C° 0 mm 1 mps 476 mmHg 50%
    11:00 +4°C° 0 mm 1 mps 476 mmHg 47%
    12:00 +4°C° 0 mm 1 mps 477 mmHg 45%
    13:00 +5°C° 0 mm 1 mps 477 mmHg 43%
    14:00 +6°C° 0 mm 1 mps 477 mmHg 40%
    15:00 +6°C° 0 mm 1 mps 477 mmHg 40%
    16:00 +4°C° 0 mm 2 mps 477 mmHg 40%
    17:00 +4°C° 0 mm 2 mps 477 mmHg 40%
    18:00 +4°C° 0 mm 1 mps 476 mmHg 43%
    19:00 +3°C° 0 mm 1 mps 475 mmHg 45%
    20:00 +2°C° 0 mm 1 mps 475 mmHg 47%
    21:00 +1°C° 0.1 mm 1 mps 475 mmHg 52%
    22:00 +1°C° 0.1 mm 1 mps 475 mmHg 56%
    23:00 +1°C° 0.1 mm 1 mps 475 mmHg 61%

    22 April, Monday

    Time Temperature Precipitation Wind Pressure Humidity
    00:00 0°C° 0.7 mm 1 mps 475 mmHg 69%
    01:00 0°C° 0.7 mm 1 mps 474 mmHg 77%
    02:00 -1°C° 0.7 mm 1 mps 474 mmHg 85%
    03:00 0°C° 0.4 mm 1 mps 474 mmHg 84%
    04:00 0°C° 0.4 mm 1 mps 474 mmHg 83%
    05:00 0°C° 0.4 mm 1 mps 475 mmHg 81%
    06:00 0°C° 0 mm 1 mps 475 mmHg 77%
    07:00 +1°C° 0 mm 1 mps 476 mmHg 73%
    08:00 +1°C° 0 mm 1 mps 476 mmHg 69%
    09:00 +2°C° 0 mm 1 mps 477 mmHg 63%
    10:00 +3°C° 0 mm 1 mps 478 mmHg 56%
    11:00 +4°C° 0 mm 1 mps 478 mmHg 50%
    12:00 +5°C° 0 mm 1 mps 478 mmHg 45%
    13:00 +4°C° 0 mm 2 mps 478 mmHg 41%
    14:00 +5°C° 0 mm 2 mps 479 mmHg 36%
    15:00 +5°C° 0 mm 2 mps 478 mmHg 35%
    16:00 +5°C° 0 mm 2 mps 478 mmHg 34%
    17:00 +4°C° 0 mm 2 mps 478 mmHg 32%
    18:00 +4°C° 0 mm 1 mps 477 mmHg 35%
    19:00 +3°C° 0 mm 1 mps 476 mmHg 37%
    20:00 0°C° 0 mm 0 mps 475 mmHg 39%
    21:00 +1°C° 0 mm 1 mps 475 mmHg 41%
    22:00 -1°C° 0 mm 2 mps 475 mmHg 43%
    23:00 -1°C° 0 mm 2 mps 475 mmHg 45%

    23 April, Tuesday

    Time Temperature Precipitation Wind Pressure Humidity
    00:00 -1°C° 0.2 mm 3 mps 475 mmHg 55%
    01:00 -1°C° 0.2 mm 3 mps 475 mmHg 66%
    02:00 -1°C° 0.2 mm 3 mps 475 mmHg 76%
    03:00 -2°C° 0.1 mm 3 mps 474 mmHg 76%
    04:00 -2°C° 0.1 mm 3 mps 474 mmHg 76%
    05:00 -2°C° 0.1 mm 3 mps 473 mmHg 77%
    06:00 -2°C° 0 mm 4 mps 475 mmHg 73%
    07:00 -1°C° 0 mm 4 mps 476 mmHg 69%
    08:00 0°C° 0 mm 4 mps 477 mmHg 65%
    09:00 +1°C° 0.1 mm 4 mps 477 mmHg 66%
    10:00 +3°C° 0.1 mm 4 mps 478 mmHg 66%
    11:00 +3°C° 0.1 mm 4 mps 478 mmHg 67%
    12:00 +3°C° 0.6 mm 4 mps 478 mmHg 69%
    13:00 +3°C° 0.6 mm 4 mps 478 mmHg 72%
    14:00 +3°C° 0.6 mm 4 mps 478 mmHg 75%
    15:00 +3°C° 0.4 mm 3 mps 478 mmHg 74%
    16:00 +4°C° 0.4 mm 2 mps 478 mmHg 73%
    17:00 +4°C° 0.4 mm 2 mps 478 mmHg 72%
    18:00 +3°C° 0.2 mm 2 mps 477 mmHg 73%
    19:00 +2°C° 0.2 mm 3 mps 477 mmHg 75%
    20:00 +1°C° 0.2 mm 3 mps 476 mmHg 77%
    21:00 0°C° 0 mm 4 mps 476 mmHg 78%
    22:00 -1°C° 0 mm 4 mps 475 mmHg 78%
    23:00 -1°C° 0 mm 4 mps 475 mmHg 79%
    Show more